ONEWEB-0282 (49000 NORAD) Tracking and Keplerian Element Data

This shows tracking and keplerian element data for the satellite.

Feedback or suggestion? Click here.




ElementValue
Catalog49000
NameONEWEB-0282
Epoch Orbit1296
Epoch Day262.16668981
Epoch Year2021
RAAN213.4579
Inclination87.8369
Eccentricity0.0011439
Argument of Perigee358.4879
Mean Anonmoly83.777
Mean Motion13.60210062
Decay Rate1.5E-07
L11 49000U 21060AK 21262.16668981 .00000015 00000-0 00000+0 0 9995
L22 49000 87.8369 213.4579 0011439 358.4879 83.7770 13.60210062 12960

Live tracking and technical data element details for ONEWEB-0282 (NORAD 49000). ONEWEB-0282 can be tracked NOW for your location showing map with azimuth and elevation plus other details from your city location.

Track the satellite on the map from your city or location and see movement details for azimuth, elevation, latitude, longitude, range, height, and movement on the map or in text.







IsCatalogInMostPopularTable: catalog: 49000, numindb: 19
Update: records affected: 1



GetName: 49000 ONEWEB-0282

Hit Count: updated at: Fri, 24 Sep 2021 17:48:53 GMT